星链-32264 (STARLINK-32264)

导读

STARLINK-32264是美国星链(Starlink)项目的低轨互联网卫星,于2024年10月23日发射入轨,归属于SpaceX的卫星互联网星座组网。它承担为全球偏远地区、海洋及高纬度区域提供高速低时延宽带接入服务,是星链大规模部署中,补充覆盖、增强星座容量和服务能力的组成单元。

基本信息
目录编号:
61642
目录名称:
STARLINK-32264
国际标识:
2024-191X
轨道中心:
EARTH
卫星名称:
星链-32264
卫星全名:
星链-32264 (STARLINK-32264)
卫星状态:
在轨 (已飞行689 天)
发射日期:
2024-10-23 UTC
国别 :
美国 (US)
星等 :
--
该卫星已列入 空间交会检测服务 Space Conjunction Data Service (SCDS) ,当前飞行风险评估等级: 无高风险
轨道信息
数据来源 国际轨道数据 AOE轨道数据
星历时间 2026-09-12T04:00:01+0800
7小时前
查看轨道信息
2026-09-06T22:00:00+0800
5天前
查看轨道信息
半长轴 6718.261km 6721.91km
偏心率 0.0026886 0.0025949
轨道倾角 42.984° 42.986°
近地点辐角 224.463° 188.557°
升交点赤经 141.240° 173.133°
平近点角 135.143° 229.524°
近地点 322.061km 326.33km
远地点 358.187km 361.216km
周期 91.337分钟 91.411分钟
每日圈数 15.765855 15.753019
详细信息
固有亮度:
5
最大亮度:
2.5
卫星平台:
Starlink V1.0
覆盖范围:
全球
运营商:
太空探索技术公司
运营商所在国:
美国
制造商(研发单位):
太空探索技术公司
制造商所在国:
美国
使用方式:
暂无
卫星简介
Starlink 计划是 SpaceX 推出的全球卫星互联网项目,通过发射低轨道卫星,为全球尤其是偏远地区提供高速、低延迟的互联网服务。自 2019 年起,Starlink 已部署数千颗卫星,旨在缩小全球数字鸿沟,推动互联网普及。该项目还为军事、航空等行业提供通信支持,带来广泛经济效益。
2D轨道图
3D轨道图
轨道高度分析图
轨道倾角分析图
轨道综合分析图
查看轨道综合分析图
交会数据列表
事件ID 空间交会对象 最接近时刻(TCA) 交会距离 交会风险概率(CRP) 交会风险指数(CRI) 操作
CDM_260907-231606-120406-164221
2026-09-07T
23:16:18+0000
0.463 km
远距离
2.089737E-4 高风险 0.81
CDM_260913-070806-164206-252321
2026-09-13T
07:08:47+0000
1.403 km
极远距离
5.8379E-6 低风险 0.5
与全量物体交会距离演化趋势
与全量物体交会风险概率演化趋势